Погода в Валерике

Россия / Чеченская Республика     43°10′42″N   45°24′25″E
темп.,
°C
ветер,
м/с
пор.,
м/с
влажн.,
%
обл.,
%
осадки,
мм/ч
давл.,
гПа
погр.,
м
18 августа, чт
чт1800:00+25юз23460 0.0 100745
03:00+24зюз12420 0.0 100723
06:00+25юз11360 0.0 100741
09:00+34ссв11237 0.0 1007792
12:00+38всв332181 0.0 10052238
15:00+40всв32170 0.0 10032729
18:00+37св44210 0.0 1002606
21:00+28ююв11380 0.0 100423
19 августа, пт
пт1900:00+25зюз33350 0.0 100557
03:00+23зсз713713 0.0 1007559
06:00+22з5107598 0.0 1008458
09:00+28з4547100 0.0 10081012
12:00+31сз1140100 0.0 10081289
15:00+34всв323098 0.0 10061968
18:00+33всв333226 0.0 1006495
21:00+26в2348100 0.0 100767
20 августа, сб
сб2000:00+24юз1158100 0.0 100822
03:00+22з1160100 0.0 100826
06:00+23з1249100 0.0 100972
09:00+29с2242100 0.0 1010833
12:00+34св3330100 0.0 10081546
15:00+37св322299 0.0 10072073
18:00+30всв6841100 0.0 1008487
21:00+23ссв2359100 0.0 101078
21 августа, вс
вс2100:00+21з236616 0.0 101057
03:00+19з127192 0.0 101038
06:00+19з2263100 0.0 101186
09:00+28ссз214211 0.0 1010840
12:00+33всв3329100 0.0 10081458
15:00+35св642184 0.0 10061757
18:00+29всв69340 0.0 1006509
21:00+22сз12540 0.0 100857
22 августа, пн
пн2200:00+19зсз34620 0.0 100876
03:00+17з12670 0.0 100931
06:00+18з12620 0.0 101055
09:00+27ссв223771 0.0 1009781
12:00+33всв2323100 0.0 10071396
15:00+34св7624100 0.0 10061372
18:00+27всв6104288 0.1 1008555
21:00+20ссв126971 0.6 101160